Time,TemperatureF,DewpointF,PressureIn,WindDirection,WindDirectionDegrees,WindSpeedMPH,WindSpeedGustMPH,Humidity,HourlyPrecipIn,Conditions,Clouds,dailyrainin,SoftwareType,DateUTC
2013-03-25 00:00:00,35.8,23.3,29.96,NW,315,15.9,15.9,60,0.00,,,0.00,WUHU21623XXSP,2013-03-25 05:00:00,
2013-03-25 00:05:00,35.6,23.2,29.96,WNW,292,8.7,15.9,60,0.00,,,0.00,WUHU21623XXSP,2013-03-25 05:05:00,
2013-03-25 00:10:00,35.2,22.4,29.96,NW,315,9.8,9.8,59,0.00,,,0.00,WUHU21623XXSP,2013-03-25 05:10:00,
2013-03-25 00:15:00,35.4,22.1,29.96,North,0,6.5,12.5,58,0.00,,,0.00,WUHU21623XXSP,2013-03-25 05:15:00,
2013-03-25 00:20:00,35.2,22.0,29.96,WNW,292,6.3,12.5,58,0.00,,,0.00,WUHU21623XXSP,2013-03-25 05:20:00,
2013-03-25 00:25:00,35.2,22.0,29.96,NW,315,5.4,10.3,58,0.00,,,0.00,WUHU21623XXSP,2013-03-25 05:25:00,
2013-03-25 00:30:00,35.2,22.0,29.96,WNW,292,7.2,10.3,58,0.00,,,0.00,WUHU21623XXSP,2013-03-25 05:30:00,
2013-03-25 00:35:00,35.2,22.0,29.96,NW,315,7.8,8.5,58,0.00,,,0.00,WUHU21623XXSP,2013-03-25 05:35:00,
2013-03-25 00:40:00,35.1,21.8,29.96,NW,315,8.7,10.5,58,0.00,,,0.00,WUHU21623XXSP,2013-03-25 05:40:00,
2013-03-25 00:45:00,35.1,21.8,29.96,NW,315,9.4,10.5,58,0.00,,,0.00,WUHU21623XXSP,2013-03-25 05:45:00,
2013-03-25 00:50:00,35.1,22.2,29.97,NNW,337,7.2,9.4,59,0.00,,,0.00,WUHU21623XXSP,2013-03-25 05:50:00,
2013-03-25 00:55:00,35.1,22.2,29.97,NW,315,8.5,8.5,59,0.00,,,0.00,WUHU21623XXSP,2013-03-25 05:55:00,
2013-03-25 01:00:00,34.7,22.3,29.97,North,0,6.0,8.5,60,0.00,,,0.00,WUHU21623XXSP,2013-03-25 06:00:00,
2013-03-25 01:05:00,34.7,22.3,29.97,NW,315,6.0,6.0,60,0.00,,,0.00,WUHU21623XXSP,2013-03-25 06:05:00,
2013-03-25 01:10:00,34.7,22.3,29.97,WNW,292,5.8,6.0,60,0.00,,,0.00,WUHU21623XXSP,2013-03-25 06:10:00,
2013-03-25 01:15:00,34.7,22.3,29.97,NW,315,13.6,13.6,60,0.00,,,0.00,WUHU21623XXSP,2013-03-25 06:15:00,
2013-03-25 01:20:00,34.5,22.1,29.97,West,270,8.3,13.6,60,0.00,,,0.00,WUHU21623XXSP,2013-03-25 06:20:00,
2013-03-25 01:25:00,34.5,22.1,29.97,NNW,337,6.7,8.3,60,0.00,,,0.00,WUHU21623XXSP,2013-03-25 06:25:00,
2013-03-25 01:30:00,34.5,22.1,29.97,West,270,5.8,6.7,60,0.00,,,0.00,WUHU21623XXSP,2013-03-25 06:30:00,
2013-03-25 01:35:00,34.5,22.1,29.97,NW,315,11.4,11.4,60,0.00,,,0.00,WUHU21623XXSP,2013-03-25 06:35:00,
2013-03-25 01:40:00,34.5,22.1,29.97,NW,315,7.4,11.4,60,0.00,,,0.00,WUHU21623XXSP,2013-03-25 06:40:00,
2013-03-25 01:45:00,34.5,22.1,29.98,NNW,337,7.4,7.4,60,0.00,,,0.00,WUHU21623XXSP,2013-03-25 06:45:00,
2013-03-25 01:50:00,34.5,22.1,29.98,WSW,247,5.1,10.3,60,0.00,,,0.00,WUHU21623XXSP,2013-03-25 06:50:00,
2013-03-25 01:55:00,34.5,22.1,29.98,West,270,13.6,13.6,60,0.00,,,0.00,WUHU21623XXSP,2013-03-25 06:55:00,
2013-03-25 02:00:00,34.3,21.5,29.98,NW,315,8.7,13.6,59,0.00,,,0.00,WUHU21623XXSP,2013-03-25 07:00:00,
2013-03-25 02:05:00,34.3,21.5,29.97,NW,315,6.7,13.6,59,0.00,,,0.00,WUHU21623XXSP,2013-03-25 07:05:00,
2013-03-25 02:10:00,34.2,21.3,29.97,NW,315,6.7,11.9,59,0.00,,,0.00,WUHU21623XXSP,2013-03-25 07:10:00,
2013-03-25 02:15:00,34.2,21.3,29.97,NNW,337,6.3,11.9,59,0.00,,,0.00,WUHU21623XXSP,2013-03-25 07:15:00,
2013-03-25 02:20:00,34.0,20.7,29.97,NW,315,6.5,6.5,58,0.00,,,0.00,WUHU21623XXSP,2013-03-25 07:20:00,
2013-03-25 02:25:00,34.0,20.7,29.97,NNW,337,8.1,8.1,58,0.00,,,0.00,WUHU21623XXSP,2013-03-25 07:25:00,
2013-03-25 02:30:00,33.6,20.4,29.97,West,270,12.5,12.5,58,0.00,,,0.00,WUHU21623XXSP,2013-03-25 07:30:00,
2013-03-25 02:35:00,33.4,20.2,29.97,WNW,292,6.7,15.2,58,0.00,,,0.00,WUHU21623XXSP,2013-03-25 07:35:00,
2013-03-25 02:40:00,33.4,19.8,29.97,WNW,292,8.1,15.2,57,0.00,,,0.00,WUHU21623XXSP,2013-03-25 07:40:00,
2013-03-25 02:45:00,33.4,19.8,29.98,WNW,292,3.8,9.4,57,0.00,,,0.00,WUHU21623XXSP,2013-03-25 07:45:00,
2013-03-25 02:50:00,33.3,19.6,29.98,NW,315,7.2,9.4,57,0.00,,,0.00,WUHU21623XXSP,2013-03-25 07:50:00,
2013-03-25 02:55:00,33.3,19.6,29.97,NNW,337,5.8,12.1,57,0.00,,,0.00,WUHU21623XXSP,2013-03-25 07:55:00,
2013-03-25 03:00:00,33.1,19.4,29.97,WSW,247,9.2,12.1,57,0.00,,,0.00,WUHU21623XXSP,2013-03-25 08:00:00,
2013-03-25 03:05:00,32.9,19.3,29.97,NNW,337,7.4,9.2,57,0.00,,,0.00,WUHU21623XXSP,2013-03-25 08:05:00,
2013-03-25 03:10:00,32.9,19.3,29.97,NW,315,5.6,8.1,57,0.00,,,0.00,WUHU21623XXSP,2013-03-25 08:10:00,
2013-03-25 03:15:00,32.9,19.3,29.97,NNW,337,7.6,7.6,57,0.00,,,0.00,WUHU21623XXSP,2013-03-25 08:15:00,
2013-03-25 03:20:00,33.1,19.4,29.97,NNW,337,8.5,8.5,57,0.00,,,0.00,WUHU21623XXSP,2013-03-25 08:20:00,
2013-03-25 03:25:00,33.3,19.6,29.97,WSW,247,5.6,8.5,57,0.00,,,0.00,WUHU21623XXSP,2013-03-25 08:25:00,
2013-03-25 03:30:00,33.3,19.6,29.97,WSW,247,6.3,7.4,57,0.00,,,0.00,WUHU21623XXSP,2013-03-25 08:30:00,
2013-03-25 03:35:00,33.3,19.6,29.97,WSW,247,9.8,9.8,57,0.00,,,0.00,WUHU21623XXSP,2013-03-25 08:35:00,
2013-03-25 03:40:00,33.3,19.6,29.98,NW,315,9.8,9.8,57,0.00,,,0.00,WUHU21623XXSP,2013-03-25 08:40:00,
2013-03-25 03:45:00,33.3,19.6,29.98,NW,315,7.8,10.3,57,0.00,,,0.00,WUHU21623XXSP,2013-03-25 08:45:00,
2013-03-25 03:50:00,33.1,19.0,29.97,NW,315,7.2,10.3,56,0.00,,,0.00,WUHU21623XXSP,2013-03-25 08:50:00,
2013-03-25 03:55:00,32.9,18.4,29.97,NNW,337,8.9,8.9,55,0.00,,,0.00,WUHU21623XXSP,2013-03-25 08:55:00,
2013-03-25 04:00:00,32.9,17.5,29.97,NW,315,9.6,15.4,53,0.00,,,0.00,WUHU21623XXSP,2013-03-25 09:00:00,
2013-03-25 04:05:00,32.9,17.5,29.97,NW,315,6.7,15.4,53,0.00,,,0.00,WUHU21623XXSP,2013-03-25 09:05:00,
2013-03-25 04:10:00,32.9,17.5,29.97,NW,315,9.2,9.2,53,0.00,,,0.00,WUHU21623XXSP,2013-03-25 09:10:00,
2013-03-25 04:15:00,32.9,18.0,29.97,NW,315,5.8,9.2,54,0.00,,,0.00,WUHU21623XXSP,2013-03-25 09:15:00,
2013-03-25 04:20:00,32.9,18.0,29.98,WNW,292,6.9,8.1,54,0.00,,,0.00,WUHU21623XXSP,2013-03-25 09:20:00,
2013-03-25 04:25:00,32.9,18.4,29.97,NNW,337,11.2,11.2,55,0.00,,,0.00,WUHU21623XXSP,2013-03-25 09:25:00,
2013-03-25 04:30:00,32.9,18.8,29.97,WNW,292,5.6,11.2,56,0.00,,,0.00,WUHU21623XXSP,2013-03-25 09:30:00,
2013-03-25 04:35:00,32.9,18.8,29.97,West,270,4.0,11.2,56,0.00,,,0.00,WUHU21623XXSP,2013-03-25 09:35:00,
2013-03-25 04:40:00,32.9,18.8,29.97,NNW,337,7.2,7.2,56,0.00,,,0.00,WUHU21623XXSP,2013-03-25 09:40:00,
2013-03-25 04:45:00,32.9,19.3,29.97,NNW,337,4.7,7.2,57,0.00,,,0.00,WUHU21623XXSP,2013-03-25 09:45:00,
2013-03-25 04:50:00,32.9,19.3,29.98,NNW,337,5.1,6.9,57,0.00,,,0.00,WUHU21623XXSP,2013-03-25 09:50:00,
2013-03-25 04:55:00,32.9,19.7,29.98,WSW,247,3.4,5.1,58,0.00,,,0.00,WUHU21623XXSP,2013-03-25 09:55:00,
2013-03-25 05:00:00,32.9,20.1,29.98,WNW,292,4.9,6.3,59,0.00,,,0.00,WUHU21623XXSP,2013-03-25 10:00:00,
2013-03-25 05:05:00,32.9,20.1,29.98,NW,315,8.3,8.3,59,0.00,,,0.00,WUHU21623XXSP,2013-03-25 10:05:00,
2013-03-25 05:10:00,32.9,19.7,29.98,NW,315,5.4,8.3,58,0.00,,,0.00,WUHU21623XXSP,2013-03-25 10:10:00,
2013-03-25 05:15:00,32.7,19.1,29.99,NW,315,12.1,12.1,57,0.00,,,0.00,WUHU21623XXSP,2013-03-25 10:15:00,
2013-03-25 05:20:00,32.7,19.1,29.99,NW,315,12.1,12.1,57,0.00,,,0.00,WUHU21623XXSP,2013-03-25 10:20:00,
2013-03-25 05:25:00,32.5,18.5,29.99,NW,315,11.4,12.1,56,0.00,,,0.00,WUHU21623XXSP,2013-03-25 10:25:00,
2013-03-25 05:30:00,32.5,18.1,29.99,WNW,292,7.8,11.4,55,0.00,,,0.00,WUHU21623XXSP,2013-03-25 10:30:00,
2013-03-25 05:35:00,32.4,17.9,29.99,WNW,292,8.7,8.7,55,0.00,,,0.00,WUHU21623XXSP,2013-03-25 10:35:00,
2013-03-25 05:40:00,32.4,17.5,29.99,NNW,337,9.4,9.8,54,0.00,,,0.00,WUHU21623XXSP,2013-03-25 10:40:00,
2013-03-25 05:45:00,32.2,16.9,29.99,WNW,292,11.2,11.6,53,0.00,,,0.00,WUHU21623XXSP,2013-03-25 10:45:00,
2013-03-25 05:50:00,32.2,17.3,30.00,WNW,292,6.9,11.6,54,0.00,,,0.00,WUHU21623XXSP,2013-03-25 10:50:00,
2013-03-25 05:55:00,32.2,17.3,30.00,WNW,292,5.6,12.1,54,0.00,,,0.00,WUHU21623XXSP,2013-03-25 10:55:00,
2013-03-25 06:00:00,32.2,17.3,30.00,NW,315,4.5,12.1,54,0.00,,,0.00,WUHU21623XXSP,2013-03-25 11:00:00,
2013-03-25 06:05:00,32.2,17.8,30.00,West,270,9.6,9.6,55,0.00,,,0.00,WUHU21623XXSP,2013-03-25 11:05:00,
2013-03-25 06:10:00,32.2,17.8,30.00,NW,315,3.1,9.6,55,0.00,,,0.00,WUHU21623XXSP,2013-03-25 11:10:00,
2013-03-25 06:15:00,32.2,18.2,30.00,North,0,5.8,5.8,56,0.00,,,0.00,WUHU21623XXSP,2013-03-25 11:15:00,
2013-03-25 06:20:00,32.2,18.2,30.01,NW,315,6.3,6.3,56,0.00,,,0.00,WUHU21623XXSP,2013-03-25 11:20:00,
2013-03-25 06:25:00,32.2,17.8,30.01,NW,315,3.6,8.1,55,0.00,,,0.00,WUHU21623XXSP,2013-03-25 11:25:00,
2013-03-25 06:30:00,32.2,17.8,30.01,North,0,11.2,11.2,55,0.00,,,0.00,WUHU21623XXSP,2013-03-25 11:30:00,
2013-03-25 06:35:00,32.2,17.6,30.01,NNW,337,9.2,11.2,55,0.00,,,0.00,WUHU21623XXSP,2013-03-25 11:35:00,
2013-03-25 06:40:00,32.2,17.8,30.01,WNW,292,7.6,9.2,55,0.00,,,0.00,WUHU21623XXSP,2013-03-25 11:40:00,
2013-03-25 06:45:00,32.0,18.0,30.01,NW,315,6.5,7.6,56,0.00,,,0.00,WUHU21623XXSP,2013-03-25 11:45:00,
2013-03-25 06:50:00,32.0,18.0,30.01,NW,315,4.7,8.7,56,0.00,,,0.00,WUHU21623XXSP,2013-03-25 11:50:00,
2013-03-25 06:55:00,32.0,18.0,30.01,West,270,6.0,8.7,56,0.00,,,0.00,WUHU21623XXSP,2013-03-25 11:55:00,
2013-03-25 07:00:00,32.0,18.0,30.01,North,0,5.8,6.0,56,0.00,,,0.00,WUHU21623XXSP,2013-03-25 12:00:00,
2013-03-25 07:05:00,31.8,17.9,30.01,WNW,292,5.6,5.8,56,0.00,,,0.00,WUHU21623XXSP,2013-03-25 12:05:00,
2013-03-25 07:10:00,31.6,17.7,30.02,WNW,292,3.4,5.6,56,0.00,,,0.00,WUHU21623XXSP,2013-03-25 12:10:00,
2013-03-25 07:15:00,31.8,17.9,30.03,NW,315,4.7,4.7,56,0.00,,,0.00,WUHU21623XXSP,2013-03-25 12:15:00,
2013-03-25 07:20:00,31.6,17.7,30.03,West,270,6.0,6.0,56,0.00,,,0.00,WUHU21623XXSP,2013-03-25 12:20:00,
2013-03-25 07:25:00,31.6,17.7,30.03,NW,315,6.7,7.8,56,0.00,,,0.00,WUHU21623XXSP,2013-03-25 12:25:00,
2013-03-25 07:30:00,31.6,17.7,30.03,NW,315,5.6,7.8,56,0.00,,,0.00,WUHU21623XXSP,2013-03-25 12:30:00,
2013-03-25 07:35:00,31.6,17.3,30.03,NW,315,6.5,6.5,55,0.00,,,0.00,WUHU21623XXSP,2013-03-25 12:35:00,
2013-03-25 07:40:00,31.6,17.3,30.03,WNW,292,4.9,10.7,55,0.00,,,0.00,WUHU21623XXSP,2013-03-25 12:40:00,
2013-03-25 07:45:00,31.6,17.3,30.03,West,270,7.2,10.7,55,0.00,,,0.00,WUHU21623XXSP,2013-03-25 12:45:00,
2013-03-25 07:50:00,31.6,17.7,30.04,North,0,7.2,7.2,56,0.00,,,0.00,WUHU21623XXSP,2013-03-25 12:50:00,
2013-03-25 07:55:00,31.6,17.7,30.04,NW,315,4.5,7.2,56,0.00,,,0.00,WUHU21623XXSP,2013-03-25 12:55:00,
2013-03-25 08:00:00,31.8,17.9,30.04,West,270,6.9,11.4,56,0.00,,,0.00,WUHU21623XXSP,2013-03-25 13:00:00,
2013-03-25 08:05:00,32.0,17.6,30.05,NNW,337,6.3,12.1,55,0.00,,,0.00,WUHU21623XXSP,2013-03-25 13:05:00,
2013-03-25 08:10:00,32.2,17.6,30.04,WNW,292,5.1,12.1,55,0.00,,,0.00,WUHU21623XXSP,2013-03-25 13:10:00,
2013-03-25 08:15:00,32.2,18.2,30.05,NNW,337,6.3,6.9,56,0.00,,,0.00,WUHU21623XXSP,2013-03-25 13:15:00,
2013-03-25 08:20:00,32.2,18.2,30.05,West,270,13.9,13.9,56,0.00,,,0.00,WUHU21623XXSP,2013-03-25 13:20:00,
2013-03-25 08:25:00,32.2,18.2,30.05,NNW,337,5.4,13.9,56,0.00,,,0.00,WUHU21623XXSP,2013-03-25 13:25:00,
2013-03-25 08:30:00,32.2,18.2,30.05,West,270,4.7,6.5,56,0.00,,,0.00,WUHU21623XXSP,2013-03-25 13:30:00,
2013-03-25 08:35:00,32.2,18.6,30.05,WNW,292,12.8,12.8,57,0.00,,,0.00,WUHU21623XXSP,2013-03-25 13:35:00,
2013-03-25 08:40:00,32.2,18.2,30.05,WNW,292,7.4,12.8,56,0.00,,,0.00,WUHU21623XXSP,2013-03-25 13:40:00,
2013-03-25 08:45:00,32.2,18.2,30.06,WNW,292,7.4,7.4,56,0.00,,,0.00,WUHU21623XXSP,2013-03-25 13:45:00,
2013-03-25 08:50:00,32.2,18.6,30.06,West,270,6.0,7.4,57,0.00,,,0.00,WUHU21623XXSP,2013-03-25 13:50:00,
2013-03-25 08:55:00,32.4,19.2,30.05,West,270,6.5,9.4,58,0.00,,,0.00,WUHU21623XXSP,2013-03-25 13:55:00,
2013-03-25 09:00:00,32.4,19.2,30.06,NW,315,6.5,9.4,58,0.00,,,0.00,WUHU21623XXSP,2013-03-25 14:00:00,
2013-03-25 09:05:00,32.5,19.8,30.06,West,270,6.0,7.4,59,0.00,,,0.00,WUHU21623XXSP,2013-03-25 14:05:00,
2013-03-25 09:10:00,32.5,19.4,30.06,WSW,247,6.3,7.4,58,0.00,,,0.00,WUHU21623XXSP,2013-03-25 14:10:00,
2013-03-25 09:15:00,32.5,19.4,30.06,NW,315,5.8,6.7,58,0.00,,,0.00,WUHU21623XXSP,2013-03-25 14:15:00,
2013-03-25 09:20:00,32.7,19.5,30.06,WNW,292,6.5,6.9,58,0.00,,,0.00,WUHU21623XXSP,2013-03-25 14:20:00,
2013-03-25 09:25:00,32.9,19.7,30.06,West,270,12.8,12.8,58,0.00,,,0.00,WUHU21623XXSP,2013-03-25 14:25:00,
2013-03-25 09:30:00,33.1,19.9,30.07,NW,315,6.3,12.8,58,0.00,,,0.00,WUHU21623XXSP,2013-03-25 14:30:00,
2013-03-25 09:35:00,33.3,19.6,30.06,West,270,15.7,15.7,57,0.00,,,0.00,WUHU21623XXSP,2013-03-25 14:35:00,
2013-03-25 09:40:00,33.3,19.6,30.07,WNW,292,6.9,15.7,57,0.00,,,0.00,WUHU21623XXSP,2013-03-25 14:40:00,
2013-03-25 09:45:00,33.4,19.8,30.07,WNW,292,5.8,6.9,57,0.00,,,0.00,WUHU21623XXSP,2013-03-25 14:45:00,
2013-03-25 09:50:00,33.8,19.7,30.07,WNW,292,7.2,12.3,56,0.00,,,0.00,WUHU21623XXSP,2013-03-25 14:50:00,
2013-03-25 09:55:00,33.8,19.7,30.07,WNW,292,9.4,12.3,56,0.00,,,0.00,WUHU21623XXSP,2013-03-25 14:55:00,
2013-03-25 10:00:00,34.2,19.6,30.07,WNW,292,7.6,9.4,55,0.00,,,0.00,WUHU21623XXSP,2013-03-25 15:00:00,
2013-03-25 10:05:00,34.3,19.8,30.07,WNW,292,8.1,8.1,55,0.00,,,0.00,WUHU21623XXSP,2013-03-25 15:05:00,
2013-03-25 10:10:00,34.5,19.9,30.07,NW,315,6.0,8.1,55,0.00,,,0.00,WUHU21623XXSP,2013-03-25 15:10:00,
2013-03-25 10:15:00,35.1,20.5,30.07,WSW,247,9.8,9.8,55,0.00,,,0.00,WUHU21623XXSP,2013-03-25 15:15:00,
2013-03-25 10:20:00,35.1,20.0,30.08,NNW,337,6.5,9.8,54,0.00,,,0.00,WUHU21623XXSP,2013-03-25 15:20:00,
2013-03-25 10:25:00,35.2,20.2,30.07,NNW,337,6.3,6.5,54,0.00,,,0.00,WUHU21623XXSP,2013-03-25 15:25:00,
2013-03-25 10:30:00,35.4,20.4,30.07,West,270,15.0,15.0,53,0.00,,,0.00,WUHU21623XXSP,2013-03-25 15:30:00,
2013-03-25 10:35:00,35.8,20.3,30.08,West,270,5.8,15.0,53,0.00,,,0.00,WUHU21623XXSP,2013-03-25 15:35:00,
2013-03-25 10:40:00,36.0,20.5,30.08,NW,315,7.4,7.4,53,0.00,,,0.00,WUHU21623XXSP,2013-03-25 15:40:00,
2013-03-25 10:45:00,36.3,20.4,30.08,NNW,337,6.5,11.0,52,0.00,,,0.00,WUHU21623XXSP,2013-03-25 15:45:00,
2013-03-25 10:50:00,36.3,20.4,30.08,WNW,292,5.8,11.0,52,0.00,,,0.00,WUHU21623XXSP,2013-03-25 15:50:00,
2013-03-25 10:55:00,36.1,19.8,30.09,NW,315,13.2,13.2,51,0.00,,,0.00,WUHU21623XXSP,2013-03-25 15:55:00,
2013-03-25 11:00:00,36.9,20.9,30.09,WNW,292,7.2,13.2,52,0.00,,,0.00,WUHU21623XXSP,2013-03-25 16:00:00,
2013-03-25 11:05:00,36.7,20.3,30.09,NW,315,7.4,9.6,51,0.00,,,0.00,WUHU21623XXSP,2013-03-25 16:05:00,
2013-03-25 11:10:00,36.9,20.4,30.09,NW,315,7.4,9.6,51,0.00,,,0.00,WUHU21623XXSP,2013-03-25 16:10:00,
2013-03-25 11:15:00,37.0,20.6,30.09,WNW,292,16.1,16.1,51,0.00,,,0.00,WUHU21623XXSP,2013-03-25 16:15:00,
2013-03-25 11:20:00,36.9,20.0,30.09,WSW,247,3.1,16.1,50,0.00,,,0.00,WUHU21623XXSP,2013-03-25 16:20:00,
2013-03-25 11:25:00,37.0,20.2,30.09,NNW,337,4.5,7.2,50,0.00,,,0.00,WUHU21623XXSP,2013-03-25 16:25:00,
2013-03-25 11:30:00,37.0,20.2,30.10,West,270,1.6,7.2,50,0.00,,,0.00,WUHU21623XXSP,2013-03-25 16:30:00,
2013-03-25 11:35:00,37.8,21.2,30.09,NW,315,0.0,8.7,51,0.00,,,0.00,WUHU21623XXSP,2013-03-25 16:35:00,
2013-03-25 11:40:00,37.9,21.0,30.10,WNW,292,4.3,8.7,50,0.00,,,0.00,WUHU21623XXSP,2013-03-25 16:40:00,
2013-03-25 11:45:00,37.8,20.3,30.10,NW,315,11.2,12.1,49,0.00,,,0.00,WUHU21623XXSP,2013-03-25 16:45:00,
2013-03-25 11:50:00,37.2,19.3,30.10,West,270,6.0,12.1,48,0.00,,,0.00,WUHU21623XXSP,2013-03-25 16:50:00,
2013-03-25 11:55:00,37.2,19.8,30.10,WNW,292,6.3,11.2,49,0.00,,,0.00,WUHU21623XXSP,2013-03-25 16:55:00,
2013-03-25 12:00:00,37.4,20.0,30.10,WNW,292,8.7,11.9,49,0.00,,,0.00,WUHU21623XXSP,2013-03-25 17:00:00,
2013-03-25 12:05:00,37.6,20.1,30.10,NW,315,12.8,12.8,49,0.00,,,0.00,WUHU21623XXSP,2013-03-25 17:05:00,
2013-03-25 12:10:00,37.4,20.0,30.10,West,270,10.3,12.8,49,0.00,,,0.00,WUHU21623XXSP,2013-03-25 17:10:00,
2013-03-25 12:15:00,37.2,19.3,30.10,NW,315,6.3,10.5,48,0.00,,,0.00,WUHU21623XXSP,2013-03-25 17:15:00,
2013-03-25 12:20:00,37.6,20.1,30.10,NW,315,7.8,7.8,49,0.00,,,0.00,WUHU21623XXSP,2013-03-25 17:20:00,
2013-03-25 12:25:00,37.6,19.6,30.10,ENE,67,5.1,7.8,48,0.00,,,0.00,WUHU21623XXSP,2013-03-25 17:25:00,
2013-03-25 12:30:00,37.4,19.4,30.10,NNW,337,7.4,7.4,48,0.00,,,0.00,WUHU21623XXSP,2013-03-25 17:30:00,
2013-03-25 12:35:00,37.6,19.6,30.10,NW,315,8.9,8.9,48,0.00,,,0.00,WUHU21623XXSP,2013-03-25 17:35:00,
2013-03-25 12:40:00,37.6,19.6,30.10,WNW,292,7.8,12.1,48,0.00,,,0.00,WUHU21623XXSP,2013-03-25 17:40:00,
2013-03-25 12:45:00,37.6,19.6,30.10,WNW,292,7.8,12.1,48,0.00,,,0.00,WUHU21623XXSP,2013-03-25 17:45:00,
2013-03-25 12:50:00,38.1,20.6,30.11,NW,315,5.4,7.8,49,0.00,,,0.00,WUHU21623XXSP,2013-03-25 17:50:00,
2013-03-25 12:55:00,38.3,20.2,30.11,NW,315,9.2,9.2,48,0.00,,,0.00,WUHU21623XXSP,2013-03-25 17:55:00,
2013-03-25 13:00:00,38.3,19.7,30.11,NW,315,12.5,12.5,47,0.00,,,0.00,WUHU21623XXSP,2013-03-25 18:00:00,
2013-03-25 13:05:00,38.3,19.7,30.11,NW,315,8.7,12.5,47,0.00,,,0.00,WUHU21623XXSP,2013-03-25 18:05:00,
2013-03-25 13:10:00,38.3,19.7,30.11,West,270,11.0,13.0,47,0.00,,,0.00,WUHU21623XXSP,2013-03-25 18:10:00,
2013-03-25 13:15:00,38.5,19.7,30.11,WNW,292,11.2,13.0,47,0.00,,,0.00,WUHU21623XXSP,2013-03-25 18:15:00,
2013-03-25 13:20:00,38.7,20.0,30.11,NNW,337,9.8,12.8,47,0.00,,,0.00,WUHU21623XXSP,2013-03-25 18:20:00,
2013-03-25 13:25:00,39.0,20.4,30.11,NNW,337,8.7,12.8,47,0.00,,,0.00,WUHU21623XXSP,2013-03-25 18:25:00,
2013-03-25 13:30:00,39.0,20.4,30.11,SW,225,10.1,10.1,47,0.00,,,0.00,WUHU21623XXSP,2013-03-25 18:30:00,
2013-03-25 13:35:00,39.0,19.9,30.11,WNW,292,7.8,10.1,46,0.00,,,0.00,WUHU21623XXSP,2013-03-25 18:35:00,
2013-03-25 13:41:00,38.7,20.0,30.11,North,0,5.4,7.8,47,0.00,,,0.00,WUHU21623XXSP,2013-03-25 18:41:00,
2013-03-25 13:46:00,38.7,19.5,30.11,WNW,292,6.7,7.8,46,0.00,,,0.00,WUHU21623XXSP,2013-03-25 18:46:00,
2013-03-25 13:51:00,38.3,19.7,30.11,NW,315,7.8,7.8,47,0.00,,,0.00,WUHU21623XXSP,2013-03-25 18:51:00,
2013-03-25 13:56:00,38.3,19.7,30.11,NW,315,7.8,7.8,47,0.00,,,0.00,WUHU21623XXSP,2013-03-25 18:56:00,
2013-03-25 14:01:00,37.9,19.4,30.11,WNW,292,12.3,12.3,47,0.00,,,0.00,WUHU21623XXSP,2013-03-25 19:01:00,
2013-03-25 14:06:00,37.8,19.2,30.11,NNW,337,10.3,12.5,47,0.00,,,0.00,WUHU21623XXSP,2013-03-25 19:06:00,
2013-03-25 14:11:00,37.9,19.9,30.11,West,270,9.4,12.5,48,0.00,,,0.00,WUHU21623XXSP,2013-03-25 19:11:00,
2013-03-25 14:16:00,37.8,19.8,30.11,WNW,292,7.4,10.3,48,0.00,,,0.00,WUHU21623XXSP,2013-03-25 19:16:00,
2013-03-25 14:21:00,37.9,20.4,30.11,WNW,292,4.9,7.4,49,0.00,,,0.00,WUHU21623XXSP,2013-03-25 19:21:00,
2013-03-25 14:26:00,37.9,20.4,30.11,WSW,247,5.8,6.9,49,0.00,,,0.00,WUHU21623XXSP,2013-03-25 19:26:00,
2013-03-25 14:32:00,38.1,20.6,30.11,NNW,337,6.9,8.1,49,0.00,,,0.00,WUHU21623XXSP,2013-03-25 19:32:00,
2013-03-25 14:37:00,38.3,20.8,30.11,West,270,6.9,11.0,48,0.00,,,0.00,WUHU21623XXSP,2013-03-25 19:37:00,
2013-03-25 14:42:00,38.3,20.8,30.11,WNW,292,5.1,10.1,49,0.00,,,0.00,WUHU21623XXSP,2013-03-25 19:42:00,
2013-03-25 14:47:00,38.5,21.5,30.11,WNW,292,5.4,13.6,50,0.00,,,0.00,WUHU21623XXSP,2013-03-25 19:47:00,
2013-03-25 14:52:00,38.7,21.1,30.12,WSW,247,6.0,13.6,49,0.00,,,0.00,WUHU21623XXSP,2013-03-25 19:52:00,
2013-03-25 14:57:00,38.7,20.6,30.12,NW,315,14.8,14.8,48,0.00,,,0.00,WUHU21623XXSP,2013-03-25 19:57:00,
2013-03-25 15:02:00,38.3,20.2,30.12,NW,315,10.3,14.8,48,0.00,,,0.00,WUHU21623XXSP,2013-03-25 20:02:00,
2013-03-25 15:07:00,38.3,19.7,30.12,NNW,337,6.7,11.0,47,0.00,,,0.00,WUHU21623XXSP,2013-03-25 20:07:00,
2013-03-25 15:12:00,38.7,20.0,30.12,NW,315,11.4,11.4,47,0.00,,,0.00,WUHU21623XXSP,2013-03-25 20:12:00,
2013-03-25 15:17:00,38.8,20.0,30.12,NW,315,9.8,11.4,47,0.00,,,0.00,WUHU21623XXSP,2013-03-25 20:17:00,
2013-03-25 15:22:00,38.8,20.7,30.12,West,270,7.4,11.0,48,0.00,,,0.00,WUHU21623XXSP,2013-03-25 20:22:00,
2013-03-25 15:27:00,39.0,20.9,30.12,NW,315,8.1,11.0,48,0.00,,,0.00,WUHU21623XXSP,2013-03-25 20:27:00,
2013-03-25 15:32:00,39.7,22.1,30.12,NW,315,6.9,8.7,49,0.00,,,0.00,WUHU21623XXSP,2013-03-25 20:32:00,
2013-03-25 15:37:00,40.1,22.9,30.12,NW,315,13.0,13.0,50,0.00,,,0.00,WUHU21623XXSP,2013-03-25 20:37:00,
2013-03-25 15:42:00,40.6,22.4,30.12,WNW,292,6.5,13.0,48,0.00,,,0.00,WUHU21623XXSP,2013-03-25 20:42:00,
2013-03-25 15:47:00,40.6,22.4,30.12,NNW,337,4.9,13.0,48,0.00,,,0.00,WUHU21623XXSP,2013-03-25 20:47:00,
2013-03-25 15:52:00,40.5,22.2,30.12,WNW,292,6.3,6.3,48,0.00,,,0.00,WUHU21623XXSP,2013-03-25 20:52:00,
2013-03-25 15:57:00,40.5,22.2,30.12,NNW,337,5.8,7.6,47,0.00,,,0.00,WUHU21623XXSP,2013-03-25 20:57:00,
2013-03-25 16:02:00,40.1,20.8,30.12,WNW,292,6.0,8.7,46,0.00,,,0.00,WUHU21623XXSP,2013-03-25 21:02:00,
2013-03-25 16:07:00,40.6,22.4,30.12,WNW,292,6.9,9.8,48,0.00,,,0.00,WUHU21623XXSP,2013-03-25 21:07:00,
2013-03-25 16:12:00,40.8,21.5,30.12,South,180,6.0,14.3,46,0.00,,,0.00,WUHU21623XXSP,2013-03-25 21:12:00,
2013-03-25 16:17:00,40.6,20.8,30.12,NW,315,4.5,14.3,45,0.00,,,0.00,WUHU21623XXSP,2013-03-25 21:17:00,
2013-03-25 16:22:00,40.6,21.3,30.12,WNW,292,12.5,13.6,46,0.00,,,0.00,WUHU21623XXSP,2013-03-25 21:22:00,
2013-03-25 16:27:00,40.6,21.3,30.12,West,270,9.2,13.6,46,0.00,,,0.00,WUHU21623XXSP,2013-03-25 21:27:00,
2013-03-25 16:32:00,40.5,20.6,30.12,NW,315,15.2,15.2,45,0.00,,,0.00,WUHU21623XXSP,2013-03-25 21:32:00,
2013-03-25 16:37:00,39.6,19.8,30.12,NNW,337,5.1,15.2,45,0.00,,,0.00,WUHU21623XXSP,2013-03-25 21:37:00,
2013-03-25 16:42:00,39.6,20.9,30.12,North,0,6.3,12.5,47,0.00,,,0.00,WUHU21623XXSP,2013-03-25 21:42:00,
2013-03-25 16:47:00,39.6,20.9,30.12,WNW,292,5.4,6.5,47,0.00,,,0.00,WUHU21623XXSP,2013-03-25 21:47:00,
2013-03-25 16:52:00,39.2,20.0,30.12,NNE,22,2.2,10.5,46,0.00,,,0.00,WUHU21623XXSP,2013-03-25 21:52:00,
2013-03-25 16:57:00,39.0,19.9,30.12,WNW,292,10.1,12.5,46,0.00,,,0.00,WUHU21623XXSP,2013-03-25 21:57:00,
2013-03-25 17:02:00,38.8,19.7,30.13,West,270,6.9,12.5,46,0.00,,,0.00,WUHU21623XXSP,2013-03-25 22:02:00,
2013-03-25 17:07:00,38.7,19.0,30.13,NW,315,10.3,15.2,45,0.00,,,0.00,WUHU21623XXSP,2013-03-25 22:07:00,
2013-03-25 17:12:00,38.3,18.7,30.13,NNW,337,6.5,15.2,45,0.00,,,0.00,WUHU21623XXSP,2013-03-25 22:12:00,
2013-03-25 17:17:00,38.1,18.5,30.14,NNW,337,12.3,12.3,45,0.00,,,0.00,WUHU21623XXSP,2013-03-25 22:17:00,
2013-03-25 17:22:00,37.9,18.4,30.14,WNW,292,10.1,12.3,45,0.00,,,0.00,WUHU21623XXSP,2013-03-25 22:22:00,
2013-03-25 17:27:00,37.8,18.2,30.14,WNW,292,7.4,14.5,45,0.00,,,0.00,WUHU21623XXSP,2013-03-25 22:27:00,
2013-03-25 17:32:00,37.9,18.4,30.14,NNW,337,5.6,14.5,45,0.00,,,0.00,WUHU21623XXSP,2013-03-25 22:32:00,
2013-03-25 17:37:00,37.9,18.9,30.15,NNW,337,0.7,6.0,46,0.00,,,0.00,WUHU21623XXSP,2013-03-25 22:37:00,
2013-03-25 17:42:00,37.8,19.2,30.15,NNW,337,7.8,7.8,47,0.00,,,0.00,WUHU21623XXSP,2013-03-25 22:42:00,
2013-03-25 17:47:00,37.6,19.6,30.15,WNW,292,3.6,7.8,48,0.00,,,0.00,WUHU21623XXSP,2013-03-25 22:47:00,
2013-03-25 17:52:00,37.6,19.6,30.15,NW,315,4.5,6.7,48,0.00,,,0.00,WUHU21623XXSP,2013-03-25 22:52:00,
2013-03-25 17:57:00,37.0,18.6,30.16,WNW,292,6.3,6.5,47,0.00,,,0.00,WUHU21623XXSP,2013-03-25 22:57:00,
2013-03-25 18:02:00,36.9,18.4,30.16,NW,315,5.4,6.5,47,0.00,,,0.00,WUHU21623XXSP,2013-03-25 23:02:00,
2013-03-25 18:07:00,37.0,19.1,30.16,West,270,4.7,11.0,48,0.00,,,0.00,WUHU21623XXSP,2013-03-25 23:07:00,
2013-03-25 18:12:00,37.0,19.1,30.16,WNW,292,7.2,11.0,48,0.00,,,0.00,WUHU21623XXSP,2013-03-25 23:12:00,
2013-03-25 18:17:00,36.9,18.9,30.16,NW,315,6.5,7.6,48,0.00,,,0.00,WUHU21623XXSP,2013-03-25 23:17:00,
2013-03-25 18:22:00,36.9,19.5,30.16,West,270,8.3,8.3,49,0.00,,,0.00,WUHU21623XXSP,2013-03-25 23:22:00,
2013-03-25 18:27:00,36.9,19.5,30.16,West,270,6.0,8.3,49,0.00,,,0.00,WUHU21623XXSP,2013-03-25 23:27:00,
2013-03-25 18:32:00,36.9,19.5,30.17,WNW,292,5.6,8.3,49,0.00,,,0.00,WUHU21623XXSP,2013-03-25 23:32:00,
2013-03-25 18:37:00,36.7,18.8,30.17,NW,315,8.7,8.7,48,0.00,,,0.00,WUHU21623XXSP,2013-03-25 23:37:00,
2013-03-25 18:42:00,36.5,18.6,30.17,NNW,337,5.4,8.7,48,0.00,,,0.00,WUHU21623XXSP,2013-03-25 23:42:00,
2013-03-25 18:47:00,36.5,18.6,30.17,WNW,292,5.1,11.6,48,0.00,,,0.00,WUHU21623XXSP,2013-03-25 23:47:00,
2013-03-25 18:52:00,36.5,19.1,30.17,West,270,5.4,13.4,49,0.00,,,0.00,WUHU21623XXSP,2013-03-25 23:52:00,
2013-03-25 18:58:00,36.5,19.1,30.18,NW,315,0.7,13.4,49,0.00,,,0.00,WUHU21623XXSP,2013-03-25 23:58:00,
2013-03-25 19:02:00,36.3,19.0,30.18,NW,315,9.4,12.8,49,0.00,,,0.00,WUHU21623XXSP,2013-03-26 00:02:00,
2013-03-25 19:07:00,36.3,19.0,30.18,NW,315,7.2,12.8,49,0.00,,,0.00,WUHU21623XXSP,2013-03-26 00:07:00,
2013-03-25 19:12:00,36.3,19.0,30.18,NW,315,11.9,11.9,49,0.00,,,0.00,WUHU21623XXSP,2013-03-26 00:12:00,
2013-03-25 19:17:00,36.1,18.8,30.18,NNW,337,4.7,11.9,49,0.00,,,0.00,WUHU21623XXSP,2013-03-26 00:17:00,
2013-03-25 19:22:00,36.1,18.8,30.18,NW,315,7.2,7.2,49,0.00,,,0.00,WUHU21623XXSP,2013-03-26 00:22:00,
2013-03-25 19:27:00,36.1,18.8,30.18,NW,315,2.2,7.2,49,0.00,,,0.00,WUHU21623XXSP,2013-03-26 00:27:00,
2013-03-25 19:32:00,36.0,19.2,30.18,WNW,292,2.7,8.1,50,0.00,,,0.00,WUHU21623XXSP,2013-03-26 00:32:00,
2013-03-25 19:37:00,36.0,19.2,30.18,WNW,292,5.8,8.1,50,0.00,,,0.00,WUHU21623XXSP,2013-03-26 00:37:00,
2013-03-25 19:42:00,35.8,19.0,30.18,NNW,337,6.3,6.3,50,0.00,,,0.00,WUHU21623XXSP,2013-03-26 00:42:00,
2013-03-25 19:47:00,35.8,19.0,30.18,West,270,3.4,6.3,50,0.00,,,0.00,WUHU21623XXSP,2013-03-26 00:47:00,
2013-03-25 19:52:00,35.8,19.0,30.19,WNW,292,6.5,6.7,50,0.00,,,0.00,WUHU21623XXSP,2013-03-26 00:52:00,
2013-03-25 19:57:00,35.8,19.0,30.19,NW,315,6.0,6.7,50,0.00,,,0.00,WUHU21623XXSP,2013-03-26 00:57:00,
2013-03-25 20:02:00,35.8,19.0,30.19,NNW,337,5.8,6.0,50,0.00,,,0.00,WUHU21623XXSP,2013-03-26 01:02:00,
2013-03-25 20:07:00,35.8,19.5,30.19,West,270,5.1,6.5,51,0.00,,,0.00,WUHU21623XXSP,2013-03-26 01:07:00,
2013-03-25 20:12:00,35.8,19.5,30.19,WNW,292,4.9,6.5,51,0.00,,,0.00,WUHU21623XXSP,2013-03-26 01:12:00,
2013-03-25 20:17:00,35.8,19.5,30.19,WNW,292,5.6,6.5,51,0.00,,,0.00,WUHU21623XXSP,2013-03-26 01:17:00,
2013-03-25 20:22:00,35.8,19.5,30.19,NNW,337,5.8,5.8,51,0.00,,,0.00,WUHU21623XXSP,2013-03-26 01:22:00,
2013-03-25 20:27:00,35.6,19.3,30.20,NNW,337,4.9,6.9,51,0.00,,,0.00,WUHU21623XXSP,2013-03-26 01:27:00,
2013-03-25 20:32:00,35.6,19.3,30.19,NNW,337,4.9,6.9,51,0.00,,,0.00,WUHU21623XXSP,2013-03-26 01:32:00,
2013-03-25 20:37:00,35.6,19.7,30.20,NW,315,2.5,6.7,52,0.00,,,0.00,WUHU21623XXSP,2013-03-26 01:37:00,
2013-03-25 20:42:00,35.6,19.7,30.20,NW,315,5.6,6.7,52,0.00,,,0.00,WUHU21623XXSP,2013-03-26 01:42:00,
2013-03-25 20:47:00,35.4,19.1,30.20,North,0,2.7,9.2,51,0.00,,,0.00,WUHU21623XXSP,2013-03-26 01:47:00,
2013-03-25 20:52:00,35.4,19.1,30.20,NW,315,4.7,9.2,51,0.00,,,0.00,WUHU21623XXSP,2013-03-26 01:52:00,
2013-03-25 20:57:00,35.4,18.7,30.20,NW,315,3.1,8.1,50,0.00,,,0.00,WUHU21623XXSP,2013-03-26 01:57:00,
2013-03-25 21:02:00,35.4,19.1,30.20,WNW,292,4.0,8.1,51,0.00,,,0.00,WUHU21623XXSP,2013-03-26 02:02:00,
2013-03-25 21:07:00,35.4,18.7,30.20,NNW,337,8.7,8.9,50,0.00,,,0.00,WUHU21623XXSP,2013-03-26 02:07:00,
2013-03-25 21:12:00,35.2,18.9,30.21,West,270,5.8,8.9,51,0.00,,,0.00,WUHU21623XXSP,2013-03-26 02:12:00,
2013-03-25 21:17:00,35.2,18.5,30.21,NW,315,6.5,6.5,50,0.00,,,0.00,WUHU21623XXSP,2013-03-26 02:17:00,
2013-03-25 21:22:00,35.2,18.5,30.21,WNW,292,7.6,7.6,50,0.00,,,0.00,WUHU21623XXSP,2013-03-26 02:22:00,
2013-03-25 21:27:00,35.2,18.5,30.21,NNW,337,7.2,7.6,50,0.00,,,0.00,WUHU21623XXSP,2013-03-26 02:27:00,
2013-03-25 21:32:00,35.2,18.5,30.21,NW,315,4.7,7.2,50,0.00,,,0.00,WUHU21623XXSP,2013-03-26 02:32:00,
2013-03-25 21:37:00,35.2,18.9,30.22,NW,315,2.7,8.1,51,0.00,,,0.00,WUHU21623XXSP,2013-03-26 02:37:00,
2013-03-25 21:42:00,35.2,18.9,30.22,NW,315,4.9,8.1,51,0.00,,,0.00,WUHU21623XXSP,2013-03-26 02:42:00,
2013-03-25 21:47:00,35.2,18.9,30.23,NW,315,5.1,6.0,51,0.00,,,0.00,WUHU21623XXSP,2013-03-26 02:47:00,
2013-03-25 21:52:00,35.1,18.8,30.23,NNW,337,4.9,6.0,51,0.00,,,0.00,WUHU21623XXSP,2013-03-26 02:52:00,
2013-03-25 21:57:00,35.2,18.9,30.23,NW,315,5.8,5.8,51,0.00,,,0.00,WUHU21623XXSP,2013-03-26 02:57:00,
2013-03-25 22:02:00,35.2,19.4,30.23,NW,315,4.5,5.8,52,0.00,,,0.00,WUHU21623XXSP,2013-03-26 03:02:00,
2013-03-25 22:07:00,35.1,19.2,30.23,WNW,292,6.3,6.3,52,0.00,,,0.00,WUHU21623XXSP,2013-03-26 03:07:00,
2013-03-25 22:12:00,35.1,19.2,30.23,NW,315,0.0,6.3,52,0.00,,,0.00,WUHU21623XXSP,2013-03-26 03:12:00,
2013-03-25 22:17:00,35.1,19.2,30.23,NNW,337,4.3,5.4,52,0.00,,,0.00,WUHU21623XXSP,2013-03-26 03:17:00,
2013-03-25 22:22:00,35.1,19.2,30.23,WNW,292,1.6,5.4,52,0.00,,,0.00,WUHU21623XXSP,2013-03-26 03:22:00,
2013-03-25 22:27:00,35.1,19.6,30.23,NNW,337,4.3,4.3,53,0.00,,,0.00,WUHU21623XXSP,2013-03-26 03:27:00,
2013-03-25 22:32:00,35.1,19.6,30.23,NW,315,0.0,4.3,53,0.00,,,0.00,WUHU21623XXSP,2013-03-26 03:32:00,
2013-03-25 22:37:00,35.1,19.6,30.23,WNW,292,2.5,2.9,53,0.00,,,0.00,WUHU21623XXSP,2013-03-26 03:37:00,
2013-03-25 22:43:00,35.1,19.6,30.23,NNW,337,5.8,5.8,53,0.00,,,0.00,WUHU21623XXSP,2013-03-26 03:43:00,
2013-03-25 22:48:00,35.1,20.0,30.24,NNW,337,3.1,5.8,54,0.00,,,0.00,WUHU21623XXSP,2013-03-26 03:48:00,
2013-03-25 22:52:00,35.1,20.0,30.24,NNW,337,6.0,6.0,54,0.00,,,0.00,WUHU21623XXSP,2013-03-26 03:52:00,
2013-03-25 22:58:00,35.1,20.0,30.24,WNW,292,1.6,6.0,54,0.00,,,0.00,WUHU21623XXSP,2013-03-26 03:58:00,
2013-03-25 23:00:00,35.1,20.0,30.24,NNW,337,5.4,6.0,54,0.00,,,0.00,WUHU21623XXSP,2013-03-26 04:00:00,
2013-03-25 23:05:00,35.1,20.5,30.24,WSW,247,4.3,5.4,55,0.00,,,0.00,WUHU21623XXSP,2013-03-26 04:05:00,
2013-03-25 23:10:00,35.1,20.5,30.24,WNW,292,4.3,4.3,55,0.00,,,0.00,WUHU21623XXSP,2013-03-26 04:10:00,
2013-03-25 23:15:00,35.1,20.5,30.24,NW,315,8.3,8.3,55,0.00,,,0.00,WUHU21623XXSP,2013-03-26 04:15:00,
2013-03-25 23:20:00,35.1,20.5,30.24,NNW,337,3.8,8.3,55,0.00,,,0.00,WUHU21623XXSP,2013-03-26 04:20:00,
2013-03-25 23:25:00,35.1,20.9,30.24,WNW,292,6.0,6.0,56,0.00,,,0.00,WUHU21623XXSP,2013-03-26 04:25:00,
2013-03-25 23:30:00,35.1,20.9,30.24,WNW,292,2.9,6.5,56,0.00,,,0.00,WUHU21623XXSP,2013-03-26 04:30:00,
2013-03-25 23:35:00,35.1,20.9,30.24,NW,315,6.7,6.7,56,0.00,,,0.00,WUHU21623XXSP,2013-03-26 04:35:00,
2013-03-25 23:40:00,35.1,20.9,30.24,NW,315,4.0,6.7,56,0.00,,,0.00,WUHU21623XXSP,2013-03-26 04:40:00,
2013-03-25 23:45:00,35.2,21.1,30.24,NNW,337,2.2,4.5,56,0.00,,,0.00,WUHU21623XXSP,2013-03-26 04:45:00,
2013-03-25 23:50:00,35.1,20.9,30.24,NW,315,6.5,6.5,56,0.00,,,0.00,WUHU21623XXSP,2013-03-26 04:50:00,
2013-03-25 23:55:00,35.1,20.9,30.24,NNW,337,7.8,7.8,56,0.00,,,0.00,WUHU21623XXSP,2013-03-26 04:55:00,